Location: Crocus Hill
(18.2167°N, 63.0667°W)
Time: 05:05:04
(UTC+00:00)

NOSS 2 (A) - Pass Details

Date: 26 January 2020
Orbit: 273 x 1575 km, 63.3° (Epoch: 06 February)

Event Time Altitude Azimuth Distance (km) Brightness Sun altitude
Exits shadow 09:40:11 58° 272° (W) 363 4.0 -15.9°
Maximum altitude 09:40:22 61° 245° (WSW) 355 4.1 -15.9°
Drops below altitude 10° 09:43:08 10° 163° (SSE) 1,306 7.7 -15.2°
Sets 09:45:20 0° 160° (SSE) 2,268 9.0 -14.7°
